CW0609 Weather Reports


time (UTC)temp
C
wind
direction
speed
KPH
gust
KPH
rain 1hr
cm
rain 24hr
cm
rain mn
cm
humidity
%
barometer
mb
20260507174557 11 0 0.0 1.6 0.03 3.15 3.12 87 1011.2
20260507173058 11 0 0.0 1.6 0.03 3.15 3.12 88 1011.4
20260507171603 11 0 0.0 1.6 0.00 3.12 3.10 89 1011.4
20260507164606 11 0 0.0 1.6 0.00 3.12 3.10 87 1011.8
20260507163106 11 0 0.0 1.6 0.00 3.12 3.10 89 1011.9
20260507161558 11 0 0.0 1.6 0.00 3.12 3.10 89 1011.8
20260507160052 12 0 0.0 0.0 0.00 3.12 3.10 91 1011.9
20260507154559 11 0 0.0 0.0 0.00 3.12 3.10 90 1011.7
20260507153054 12 0 0.0 1.6 0.00 3.12 3.10 91 1011.9
20260507151554 12 0 0.0 0.0 0.00 3.12 3.10 91 1011.9
20260507150059 12 0 0.0 0.0 0.03 3.12 3.10 91 1011.9
20260507144556 12 0 0.0 0.0 0.03 3.28 3.10 91 1011.9
20260507143107 12 0 0.0 1.6 0.03 3.28 3.10 91 1011.6
20260507141555 12 0 0.0 0.0 0.03 3.28 3.10 91 1011.9
20260507140057 12 0 0.0 1.6 0.00 3.25 3.07 91 1011.9
20260507134558 13 0 0.0 0.0 0.00 3.28 3.07 93 1011.9
20260507133100 13 0 0.0 1.6 0.00 3.28 3.07 93 1011.9
20260507131611 13 0 0.0 0.0 0.00 3.28 3.07 93 1011.4
20260507130058 12 0 0.0 0.0 0.00 3.28 3.07 93 1011.4
20260507124553 12 0 0.0 0.0 0.00 3.28 3.07 93 1011.7
20260507123059 13 0 0.0 0.0 0.00 3.28 3.07 93 1011.5
20260507121557 12 0 0.0 0.0 0.00 3.28 3.07 93 1011.2
20260507120058 12 0 0.0 0.0 0.00 3.28 3.07 93 1011.5
20260507114607 12 0 0.0 0.0 0.00 3.28 3.07 93 1011.7
20260507113100 12 0 0.0 0.0 0.13 3.28 3.07 93 1011.5
20260507111600 12 0 0.0 0.0 0.58 3.28 3.07 93 1011.3
20260507110056 12 0 0.0 0.0 1.02 3.28 3.07 92 1011.4
20260507104556 12 0 0.0 1.6 1.80 3.28 3.07 92 1011.1
20260507103100 12 0 0.0 1.6 2.39 3.15 2.95 91 1011.2
20260507101557 13 352 0.0 1.6 2.41 2.67 2.49 91 1010.9
20260507100103 13 0 0.0 3.2 2.01 2.26 2.06 91 1010.8
20260507094554 15 0 0.0 4.8 1.27 1.47 1.27 89 1010.4
20260507093055 17 356 1.6 4.8 0.56 0.76 0.56 87 1010.4
20260507091556 18 0 0.0 0.0 0.05 0.25 0.05 91 1010.0
20260507090056 18 0 0.0 0.0 0.05 0.25 0.05 90 1009.9
20260507084556 18 0 0.0 0.0 0.00 0.20 0.00 90 1009.8
20260507083058 18 0 0.0 0.0 0.00 0.20 0.00 90 1009.7
20260507081554 18 0 0.0 0.0 0.00 0.20 0.00 89 1009.3
20260507080115 18 0 0.0 0.0 0.00 0.20 0.00 89 1009.0
20260507074554 18 0 0.0 3.2 0.00 0.20 0.00 89 1008.6
20260507073054 18 153 0.0 3.2 0.00 0.20 0.00 88 1008.8
20260507071609 19 0 0.0 1.6 0.00 0.20 0.00 88 1009.2
20260507070057 19 0 0.0 3.2 0.00 0.20 0.00 88 1009.7
20260507064555 18 0 0.0 4.8 0.00 0.20 0.00 88 1009.4
20260507063058 18 0 0.0 3.2 0.00 0.20 0.00 87 1009.3
20260507061600 18 99 0.0 0.0 0.00 0.20 0.00 87 1009.2
20260507060059 18 0 0.0 0.0 0.00 0.20 0.00 86 1009.2
20260507054554 19 0 0.0 1.6 0.00 0.20 0.00 86 1009.4
20260507053120 19 81 0.0 4.8 0.00 0.20 0.00 86 1009.5
20260507051605 19 0 0.0 3.2 0.00 0.20 0.00 86 1009.6
20260507050059 19 0 0.0 9.7 0.00 0.20 0.00 85 1010.2
20260507044557 19 89 0.0 4.8 0.00 0.20 0.00 84 1010.8
20260507043059 19 0 0.0 0.0 0.00 0.20 0.00 84 1011.0
20260507041557 19 0 0.0 3.2 0.00 0.20 0.00 84 1010.7
20260507040100 19 0 0.0 0.0 0.00 0.20 0.00 84 1010.6
20260507034556 19 0 0.0 3.2 0.00 0.20 0.20 85 1010.3
20260507033101 19 0 0.0 1.6 0.00 0.20 0.20 85 1010.3
20260507031556 18 172 0.0 1.6 0.00 0.20 0.20 86 1009.9
20260507030059 18 0 0.0 1.6 0.00 0.20 0.20 86 1010.1
20260507024603 18 139 0.0 4.8 0.00 0.20 0.20 86 1009.8
20260507023054 18 0 0.0 0.0 0.00 0.20 0.20 86 1010.1
20260507021601 18 0 0.0 1.6 0.00 0.20 0.20 86 1010.2
20260507020057 18 0 0.0 1.6 0.00 0.20 0.20 87 1010.6
20260507014612 18 226 0.0 0.0 0.00 0.20 0.20 88 1010.6
20260507013056 18 0 0.0 0.0 0.00 0.20 0.20 87 1010.5
20260507011604 18 0 0.0 0.0 0.00 0.20 0.20 86 1010.3
20260507010104 18 0 0.0 0.0 0.00 0.20 0.20 86 1010.2
20260507004606 19 0 0.0 0.0 0.00 0.20 0.20 84 1010.1
20260507003055 19 0 0.0 0.0 0.00 0.20 0.20 83 1010.3
20260507001557 20 0 0.0 1.6 0.00 0.20 0.20 82 1010.3
20260507000057 20 0 0.0 0.0 0.00 0.20 0.20 81 1010.6
20260506234554 20 0 0.0 3.2 0.00 0.20 0.20 80 1010.2
20260506233058 21 0 0.0 3.2 0.00 0.20 0.20 80 1009.9
20260506231558 21 0 0.0 1.6 0.00 0.20 0.20 80 1010.0
20260506230059 21 0 1.6 4.8 0.00 0.20 0.20 79 1010.0
20260506224553 21 0 0.0 3.2 0.00 0.20 0.20 78 1010.0
20260506223100 21 0 0.0 0.0 0.00 0.20 0.20 78 1009.9
20260506221555 21 0 0.0 3.2 0.00 0.20 0.20 78 1010.0
20260506220056 21 208 0.0 6.4 0.00 0.20 0.20 77 1009.8
20260506214604 21 49 0.0 6.4 0.00 0.20 0.20 76 1009.9
20260506213053 21 0 0.0 6.4 0.00 0.20 0.20 75 1010.1
20260506211603 21 223 1.6 8.0 0.00 0.20 0.20 75 1010.3
20260506210056 21 89 1.6 6.4 0.00 0.20 0.20 77 1010.1
20260506204555 21 276 0.0 3.2 0.00 0.20 0.20 78 1010.2
20260506203052 21 86 1.6 8.0 0.00 0.20 0.20 79 1010.3
20260506201552 21 0 0.0 6.4 0.00 0.20 0.20 79 1009.9
20260506200103 21 307 1.6 8.0 0.00 0.20 0.20 79 1009.7
20260506194605 20 297 1.6 8.0 0.00 0.20 0.20 79 1009.1
20260506193056 20 102 0.0 3.2 0.00 0.20 0.20 80 1009.4
20260506191605 20 177 1.6 8.0 0.00 0.20 0.20 80 1009.9
20260506190056 20 250 1.6 8.0 0.00 0.20 0.20 81 1009.9
20260506184554 19 257 1.6 9.7 0.03 0.20 0.20 82 1010.8
20260506183108 18 266 1.6 4.8 0.03 0.20 0.20 84 1011.3
20260506181602 18 94 0.0 8.0 0.03 0.20 0.20 86 1011.6